Wind_Speed
16 15 14 14 13 13 12 12 12 10 8 5 3 3 3 5 7 8 10 10 10 10 10 9 8 8 7 6 5 4 4 3 2 2 2 2 1 1 1 1 1 1 1
15 14 14 13 13 12 12 12 11 9 7 5 2 2 3 5 7 8 10 10 10 10 10 10 10 10 9 8 6 6 5 4 3 3 2 2 2 1 1 1 2 2 2
16 14 13 12 12 12 12 11 10 8 7 5 3 2 3 4 6 8 10 11 10 11 11 11 10 11 10 9 8 7 6 5 5 4 4 3 3 2 3 2 3 3 3
15 13 12 11 11 12 11 10 9 7 6 6 4 3 4 4 5 8 9 10 11 12 12 11 11 11 11 10 9 9 8 7 6 6 6 5 5 4 4 4 4 5 5
14 12 11 11 11 11 10 9 8 7 7 6 5 4 4 4 5 7 9 10 10 12 13 13 12 12 12 11 11 10 9 9 8 8 7 7 7 6 6 6 6 6 6
15 13 11 10 10 10 10 9 8 7 7 6 6 5 4 4 5 7 9 10 11 12 13 13 13 13 13 13 12 11 11 10 10 9 9 9 8 8 8 8 8 8 8
14 14 12 11 9 9 9 8 7 8 7 6 6 5 5 5 6 7 9 11 12 13 13 14 14 14 14 14 14 13 12 12 12 11 11 11 10 10 10 10 10 10 10
14 13 12 11 9 9 9 8 7 7 7 6 5 5 5 6 6 7 8 11 12 13 13 14 14 14 15 15 15 15 15 14 14 14 13 13 13 13 12 11 11 12 12
13 12 11 10 9 9 8 8 8 7 7 6 5 5 4 5 6 7 8 10 12 13 13 14 14 15 16 16 17 16 16 17 17 16 16 16 16 16 15 14 14 15 15
12 11 11 10 9 9 8 8 8 7 7 7 7 6 5 5 6 6 7 9 11 13 13 14 14 15 16 16 17 17 17 17 18 18 18 19 18 18 18 18 18 18 17
12 11 10 9 9 9 8 8 8 7 7 8 7 7 6 6 6 6 7 8 9 10 12 13 15 16 16 16 17 18 19 19 19 19 20 20 20 20 20 20 20 20 20
12 12 10 10 9 9 9 9 9 8 8 8 8 7 7 6 6 6 7 8 10 11 12 13 14 14 16 17 18 19 20 20 20 21 22 22 21 21 22 22 22 22 23
14 12 11 10 10 10 10 10 9 9 9 9 8 8 8 7 7 7 8 9 10 12 13 14 15 16 17 18 18 19 20 21 21 22 23 22 22 23 23 24 25 25 25
15 14 12 12 11 11 12 12 11 10 10 10 9 9 9 9 10 9 10 10 10 11 13 14 15 17 18 18 18 20 21 22 22 22 23 24 24 24 25 25 26 26 26
17 15 13 13 13 12 13 13 12 12 12 11 11 11 11 11 11 11 11 11 11 12 13 14 16 17 18 18 19 20 21 22 23 22 23 24 25 26 26 26 26 27 27
19 17 16 14 14 14 14 14 13 13 13 13 13 13 12 13 12 12 12 12 13 13 14 14 16 17 17 18 20 21 22 22 23 23 23 24 25 26 27 27 27 28 28
20 19 18 16 16 16 15 15 15 15 15 15 15 14 15 14 14 13 14 14 15 15 15 16 18 18 19 20 20 21 22 23 23 23 23 24 25 26 27 27 28 28 29
22 21 19 19 18 18 17 17 17 17 17 17 17 17 17 16 16 15 16 15 16 16 16 16 16 17 18 20 20 21 22 23 23 23 23 24 26 26 27 28 28 29 30
23 22 21 20 20 19 19 18 18 19 19 19 19 19 18 18 18 18 18 18 17 17 17 17 18 19 19 20 21 22 22 23 24 25 26 27 27 28 29 29 30 31 31
26 23 21 20 20 20 20 20 20 20 20 20 19 19 19 19 19 19 19 19 19 19 19 19 19 20 21 22 22 24 24 25 25 26 27 28 29 30 30 30 31 31 32
25 25 23 22 21 21 21 21 21 21 21 21 21 21 20 20 20 20 20 20 21 21 21 22 22 21 21 22 23 24 25 25 26 27 27 28 28 29 30 31 32 32 33
27 25 24 23 23 22 22 21 21 22 22 22 22 21 21 21 20 21 21 21 22 22 23 23 23 23 23 24 25 25 26 26 26 27 28 28 29 30 31 32 32 32 33
26 26 25 23 23 23 23 23 23 23 23 23 22 22 22 22 22 22 22 22 22 22 23 23 24 24 25 25 25 26 26 27 28 28 29 30 31 31 31 31 31 32 33
26 24 24 23 22 23 23 24 23 23 23 23 23 23 23 22 23 23 22 22 22 23 23 24 25 25 25 25 25 26 26 27 28 29 30 30 31 32 32 32 32 33 34
25 25 25 23 23 24 24 25 25 24 24 24 24 24 24 23 23 23 23 23 24 24 24 24 25 25 25 26 26 26 27 27 28 29 29 30 31 31 32 33 34 34 35
25 25 26 26 25 24 25 25 26 25 24 24 24 24 24 23 23 23 24 24 24 24 24 24 24 25 25 26 25 26 26 27 27 28 29 31 31 32 33 34 35 36 36
Wind_Direction
334 331 331 332 334 339 341 342 344 347 348 340 299 268 248 219 211 210 209 205 204 203 205 207 206 203 203 207 207 205 206 200 195 184 175 160 170 155 133 138 161 166 188
331 326 326 328 334 338 339 338 340 340 340 346 320 262 248 234 225 214 208 206 205 203 201 205 208 208 208 211 212 212 213 215 211 205 201 196 213 240 256 247 238 235 243
325 321 322 328 336 338 339 337 336 337 339 336 325 275 264 238 223 212 209 208 211 209 205 207 210 210 211 213 215 216 218 221 219 217 224 223 226 242 246 257 254 256 248
323 322 322 327 335 337 335 335 333 334 336 332 318 295 276 253 222 212 208 211 217 216 211 211 215 216 217 218 220 221 223 226 227 227 230 236 241 243 247 255 259 256 255
326 325 325 325 331 335 332 326 323 324 326 324 316 297 275 254 231 214 207 212 220 219 216 216 219 221 221 223 226 226 229 231 233 237 239 241 246 249 250 253 255 255 256
327 327 323 322 326 331 332 326 321 324 323 315 306 296 278 253 244 230 221 218 217 219 221 221 222 223 223 226 229 232 234 236 239 244 248 249 252 252 253 254 255 254 254
326 325 322 322 323 330 334 328 326 326 324 317 305 293 271 257 251 241 231 227 223 223 222 223 224 225 227 228 232 236 240 242 244 248 251 253 257 258 259 261 260 261 260
320 318 318 320 324 329 333 330 326 325 324 318 311 295 269 261 249 242 239 232 226 225 225 228 228 231 231 234 237 242 247 247 249 252 255 256 257 259 261 263 264 267 266
317 315 314 316 318 321 324 328 325 321 323 323 320 314 295 271 258 250 243 234 229 230 232 232 232 233 235 238 241 244 248 251 253 255 257 258 259 261 261 265 267 266 266
317 315 310 308 311 315 317 320 324 324 323 325 325 321 306 283 272 260 253 243 237 234 234 235 236 238 240 245 247 247 252 256 258 259 261 263 265 264 265 268 268 268 268
316 311 306 305 308 311 313 317 318 319 320 322 321 320 312 294 275 266 260 251 244 241 241 241 240 243 246 250 251 251 255 260 262 263 264 265 267 264 267 270 271 270 270
314 311 304 302 305 307 308 309 313 310 312 315 315 311 308 301 286 272 267 260 253 251 251 248 246 248 251 254 254 254 258 261 262 263 265 266 265 265 268 271 273 273 273
307 307 303 302 302 301 302 305 308 307 309 311 308 308 303 296 285 275 272 266 261 259 256 255 250 251 255 258 257 257 260 262 263 264 264 265 267 268 269 271 273 274 274
303 303 304 303 302 299 298 300 302 303 305 305 302 298 300 296 284 278 275 272 268 263 260 258 253 253 259 262 260 261 262 263 264 265 264 265 266 268 269 272 274 274 275
299 299 300 303 302 297 295 295 296 298 300 301 300 299 295 296 292 284 280 277 276 272 267 263 259 260 262 265 265 265 264 265 266 268 269 268 269 269 270 272 274 274 275
292 296 294 296 299 295 291 290 290 292 294 295 296 296 293 291 293 291 287 282 279 276 272 269 264 265 266 267 268 268 269 268 268 269 272 271 271 272 272 273 274 275 276
291 293 292 290 290 290 289 289 289 289 289 291 292 291 291 291 290 291 290 285 279 277 277 274 270 269 269 269 271 270 270 271 271 271 272 273 274 274 274 273 273 274 275
287 289 291 289 287 286 284 284 285 284 286 287 289 291 291 289 288 289 289 287 284 281 277 277 275 272 274 275 274 274 274 274 274 273 274 275 274 276 277 277 276 277 278
280 282 284 285 284 284 283 283 282 283 284 285 287 288 289 289 288 288 288 285 284 284 281 278 278 277 277 278 278 278 279 279 278 276 275 277 277 278 278 278 279 279 279
282 281 282 281 280 280 280 279 280 281 282 283 284 285 288 289 290 288 286 283 281 282 283 283 282 281 279 278 279 279 280 281 280 279 277 278 279 280 279 279 279 279 280
279 281 281 281 283 283 282 280 278 278 280 281 281 284 286 287 287 287 284 283 282 281 281 281 281 281 282 281 283 283 282 283 283 281 281 281 281 280 280 280 279 279 280
275 275 276 277 280 281 281 282 282 279 279 280 281 283 283 284 285 285 283 281 281 281 280 280 281 282 282 283 285 284 285 285 284 283 284 284 283 282 282 282 281 281 282
275 272 272 275 278 279 280 283 285 284 281 280 281 281 282 283 283 283 283 281 280 281 282 281 282 283 282 282 283 284 284 284 284 284 285 284 284 284 284 284 283 283 283
275 271 271 275 275 277 280 282 284 284 282 282 282 282 282 282 282 284 283 281 280 281 281 282 283 283 283 284 284 285 285 286 286 286 285 284 284 284 284 283 283 284 283
272 273 273 273 274 277 279 282 283 283 282 282 281 282 283 282 282 282 282 282 282 283 283 283 283 284 286 286 285 287 286 287 289 287 285 285 286 284 283 284 284 284 285
273 274 275 274 275 278 280 282 283 282 281 281 280 280 281 281 281 281 281 281 282 283 284 284 284 286 287 287 286 287 287 289 290 290 289 288 289 288 288 288 287 287 287
Height
5904 5902 5901 5899 5896 5894 5892 5890 5888 5887 5885 5884 5884 5884 5884 5884 5885 5886 5888 5889 5891 5892 5894 5896 5897 5898 5899 5900 5900 5901 5901 5901 5901 5901 5901 5901 5901 5900 5900 5900 5899 5899 5899
5903 5901 5899 5897 5895 5893 5891 5889 5887 5886 5884 5883 5883 5883 5883 5883 5884 5885 5886 5888 5889 5891 5892 5894 5896 5897 5898 5899 5900 5900 5901 5901 5901 5901 5901 5901 5901 5901 5900 5900 5899 5899 5898
5903 5900 5898 5896 5894 5892 5889 5887 5886 5885 5883 5882 5881 5881 5881 5881 5882 5883 5884 5886 5887 5889 5891 5892 5894 5895 5896 5897 5898 5899 5900 5900 5900 5900 5901 5901 5901 5900 5900 5900 5899 5899 5898
5901 5899 5896 5895 5892 5890 5888 5887 5885 5884 5883 5882 5881 5880 5880 5880 5881 5881 5882 5884 5885 5887 5889 5890 5892 5893 5895 5896 5897 5898 5898 5899 5899 5900 5900 5900 5900 5900 5900 5899 5899 5898 5898
5899 5897 5895 5893 5891 5889 5887 5886 5884 5883 5882 5881 5880 5879 5879 5879 5879 5880 5880 5882 5883 5885 5887 5888 5890 5891 5893 5894 5895 5896 5897 5898 5898 5898 5899 5899 5899 5899 5898 5898 5898 5897 5897
5897 5895 5893 5892 5890 5888 5886 5885 5883 5882 5881 5879 5879 5878 5878 5877 5878 5878 5879 5880 5881 5883 5884 5886 5888 5889 5890 5892 5893 5894 5895 5896 5896 5896 5897 5897 5897 5897 5897 5896 5896 5895 5895
5895 5894 5892 5890 5888 5887 5885 5884 5882 5881 5879 5878 5877 5876 5876 5876 5876 5877 5877 5878 5879 5880 5882 5883 5885 5886 5887 5889 5891 5892 5892 5893 5894 5894 5894 5894 5895 5894 5894 5894 5894 5893 5893
5893 5892 5890 5889 5887 5886 5884 5883 5881 5880 5878 5877 5875 5875 5874 5874 5874 5875 5875 5875 5877 5878 5879 5881 5882 5883 5885 5886 5888 5888 5889 5890 5891 5891 5891 5891 5891 5891 5891 5891 5891 5891 5890
5891 5890 5888 5887 5886 5885 5883 5882 5880 5879 5877 5876 5874 5873 5873 5872 5872 5872 5873 5873 5874 5875 5877 5878 5879 5880 5881 5883 5884 5885 5885 5886 5887 5887 5888 5888 5888 5888 5888 5888 5888 5888 5887
5889 5887 5886 5885 5884 5883 5882 5880 5879 5878 5876 5875 5873 5873 5872 5871 5871 5871 5871 5871 5872 5873 5874 5875 5876 5877 5878 5879 5879 5881 5881 5882 5883 5883 5883 5883 5884 5884 5884 5884 5883 5883 5883
5886 5884 5884 5883 5882 5881 5880 5878 5877 5876 5875 5874 5873 5872 5871 5870 5869 5869 5869 5869 5870 5870 5871 5872 5873 5874 5875 5875 5875 5876 5877 5878 5878 5878 5879 5879 5878 5879 5879 5879 5878 5878 5878
5883 5882 5882 5881 5880 5878 5877 5876 5876 5875 5874 5872 5871 5870 5869 5868 5868 5867 5868 5868 5868 5868 5868 5869 5870 5870 5871 5871 5871 5872 5872 5873 5873 5873 5873 5873 5873 5873 5873 5873 5872 5872 5872
5880 5879 5879 5878 5877 5876 5875 5874 5874 5873 5872 5871 5870 5869 5868 5867 5866 5865 5865 5865 5865 5865 5865 5866 5866 5867 5867 5867 5867 5867 5868 5868 5868 5868 5867 5867 5867 5867 5867 5866 5866 5865 5865
5877 5876 5875 5875 5874 5874 5873 5872 5871 5871 5870 5869 5868 5867 5866 5865 5864 5863 5863 5863 5862 5862 5862 5862 5862 5862 5863 5862 5862 5862 5862 5862 5862 5862 5861 5861 5861 5860 5860 5859 5859 5858 5857
5874 5873 5872 5872 5871 5871 5870 5869 5869 5868 5867 5866 5865 5864 5863 5863 5861 5861 5860 5860 5859 5859 5858 5858 5858 5858 5858 5858 5858 5857 5857 5856 5856 5855 5855 5854 5854 5853 5853 5852 5851 5850 5850
5870 5870 5869 5869 5868 5867 5867 5866 5865 5865 5864 5863 5862 5861 5860 5859 5858 5858 5857 5856 5856 5855 5854 5854 5853 5853 5853 5853 5852 5851 5851 5850 5849 5849 5849 5848 5848 5847 5846 5845 5844 5843 5842
5866 5866 5865 5864 5864 5864 5863 5862 5861 5861 5860 5859 5859 5858 5857 5856 5855 5854 5853 5852 5851 5850 5850 5849 5849 5848 5848 5847 5846 5845 5845 5844 5843 5843 5842 5841 5841 5840 5838 5837 5836 5836 5834
5862 5861 5860 5860 5860 5859 5858 5858 5857 5857 5856 5855 5854 5854 5853 5852 5851 5850 5849 5848 5847 5846 5845 5845 5844 5843 5842 5841 5840 5839 5839 5838 5837 5836 5835 5834 5833 5832 5831 5830 5829 5828 5826
5856 5856 5856 5855 5855 5854 5854 5853 5852 5852 5851 5850 5850 5849 5848 5847 5846 5845 5844 5843 5842 5841 5840 5839 5839 5838 5837 5836 5834 5834 5832 5831 5830 5829 5829 5827 5826 5825 5823 5822 5821 5819 5818
5850 5850 5850 5849 5849 5849 5848 5848 5847 5847 5846 5845 5845 5844 5843 5842 5841 5840 5839 5838 5837 5836 5835 5834 5833 5832 5831 5830 5828 5827 5826 5824 5823 5822 5821 5820 5818 5816 5815 5813 5812 5810 5809
5844 5844 5844 5844 5843 5843 5842 5842 5841 5841 5840 5840 5839 5838 5837 5836 5835 5834 5833 5832 5831 5830 5829 5828 5827 5826 5825 5823 5822 5820 5819 5817 5816 5814 5813 5811 5810 5808 5806 5804 5802 5801 5799
5838 5839 5838 5838 5837 5837 5837 5836 5836 5835 5835 5834 5833 5833 5832 5831 5830 5828 5827 5826 5825 5824 5822 5821 5820 5819 5818 5816 5815 5813 5812 5810 5808 5807 5805 5803 5801 5800 5798 5795 5793 5791 5789
5831 5832 5832 5832 5832 5831 5831 5831 5830 5829 5828 5828 5827 5826 5825 5824 5823 5822 5821 5819 5818 5817 5816 5814 5813 5812 5811 5809 5807 5806 5804 5802 5800 5799 5797 5795 5793 5791 5789 5786 5784 5782 5780
5824 5824 5825 5825 5826 5825 5825 5825 5824 5823 5822 5821 5821 5820 5819 5818 5817 5815 5814 5813 5812 5810 5809 5807 5806 5805 5803 5801 5800 5798 5796 5794 5792 5790 5788 5786 5784 5782 5780 5777 5775 5772 5770
5818 5819 5819 5819 5819 5819 5819 5818 5817 5816 5815 5814 5814 5813 5812 5811 5810 5809 5807 5806 5805 5804 5802 5800 5799 5797 5796 5794 5793 5791 5788 5786 5784 5781 5779 5777 5775 5773 5770 5767 5765 5762 5760
5811 5812 5812 5812 5812 5812 5812 5812 5811 5809 5807 5807 5806 5805 5804 5803 5802 5801 5800 5799 5798 5796 5795 5793 5792 5790 5789 5787 5784 5782 5780 5778 5775 5773 5771 5768 5765 5763 5760 5757 5755 5752 5749